Location: ???????
(55.7027°N, 37.3832°E)
Time: 22:31:11
(UTC+00:00)

SPOT 3 Rocket - Pass Details

Date: 14 April 2026
Orbit: 774 x 791 km, 98.5° (Epoch: 13 May)

Event Time Altitude Azimuth Distance (km) Brightness Sun altitude
Exits shadow 17:44:42 12° 129° (SE) 2,187 5.2 -9.7°
Maximum altitude 17:49:05 41° 62° (ENE) 1,127 4.2 -10.2°
Drops below altitude 10° 17:53:56 10° 354° (N) 2,357 6.7 -10.8°
Sets 17:56:22 0° 347° (NNW) 3,287 7.6 -11.1°
